| time (UTC) | temp C | wind direction | speed KPH | gust KPH | rain 1hr cm | rain 24hr cm | rain mn cm | humidity % | barometer mb |
| 20260510164313 | 20 | 266 | 0.0 | 4.8 | 0.00 | 0.00 | 0.00 | 59 | 1027.4 |
| 20260510163812 | 20 | 254 | 3.2 | 4.8 | 0.00 | 0.00 | 0.00 | 60 | 1027.2 |
| 20260510163308 | 20 | 211 | 1.6 | 6.4 | 0.00 | 0.00 | 0.00 | 60 | 1027.2 |
| 20260510162808 | 19 | 252 | 3.2 | 4.8 | 0.00 | 0.00 | 0.00 | 60 | 1027.3 |
| 20260510162306 | 19 | 277 | 1.6 | 4.8 | 0.00 | 0.00 | 0.00 | 61 | 1027.4 |
| 20260510161801 | 18 | 278 | 4.8 | 6.4 | 0.00 | 0.00 | 0.00 | 62 | 1027.5 |
| 20260510161257 | 18 | 267 | 1.6 | 6.4 | 0.00 | 0.00 | 0.00 | 61 | 1027.5 |
| 20260510160754 | 18 | 291 | 4.8 | 6.4 | 0.00 | 0.00 | 0.00 | 62 | 1027.6 |
| 20260510160250 | 18 | 276 | 4.8 | 4.8 | 0.00 | 0.00 | 0.00 | 62 | 1027.5 |
| 20260510155745 | 19 | 291 | 6.4 | 11.3 | 0.00 | 0.00 | 0.00 | 61 | 1027.5 |
| 20260510155242 | 18 | 276 | 1.6 | 3.2 | 0.00 | 0.00 | 0.00 | 63 | 1027.6 |
| 20260510154737 | 18 | 301 | 3.2 | 4.8 | 0.00 | 0.00 | 0.00 | 62 | 1027.5 |
| 20260510154234 | 18 | 265 | 3.2 | 4.8 | 0.00 | 0.00 | 0.00 | 62 | 1027.6 |
| 20260510153729 | 18 | 232 | 3.2 | 4.8 | 0.00 | 0.00 | 0.00 | 63 | 1027.6 |
| 20260510153225 | 18 | 220 | 6.4 | 6.4 | 0.00 | 0.00 | 0.00 | 63 | 1027.6 |
| 20260510152722 | 18 | 270 | 3.2 | 6.4 | 0.00 | 0.00 | 0.00 | 62 | 1027.7 |
| 20260510152218 | 18 | 288 | 3.2 | 6.4 | 0.00 | 0.00 | 0.00 | 64 | 1027.6 |
| 20260510151715 | 18 | 198 | 3.2 | 6.4 | 0.00 | 0.00 | 0.00 | 65 | 1027.5 |
| 20260510151214 | 18 | 284 | 8.0 | 11.3 | 0.00 | 0.00 | 0.00 | 64 | 1027.5 |
| 20260510150709 | 18 | 249 | 4.8 | 4.8 | 0.00 | 0.00 | 0.00 | 64 | 1027.6 |
| 20260510150204 | 18 | 247 | 1.6 | 6.4 | 0.00 | 0.00 | 0.00 | 66 | 1027.7 |
| 20260510145701 | 18 | 260 | 3.2 | 4.8 | 0.00 | 0.00 | 0.00 | 65 | 1027.6 |
| 20260510145157 | 18 | 202 | 0.0 | 3.2 | 0.00 | 0.00 | 0.00 | 67 | 1027.4 |
| 20260510144653 | 17 | 294 | 3.2 | 6.4 | 0.00 | 0.00 | 0.00 | 69 | 1027.5 |
| 20260510144150 | 17 | 203 | 0.0 | 3.2 | 0.00 | 0.00 | 0.00 | 70 | 1027.5 |
| 20260510143645 | 17 | 262 | 3.2 | 4.8 | 0.00 | 0.00 | 0.00 | 71 | 1027.6 |
| 20260510143142 | 17 | 259 | 1.6 | 3.2 | 0.00 | 0.00 | 0.00 | 73 | 1027.4 |
| 20260510142638 | 16 | 184 | 0.0 | 4.8 | 0.00 | 0.00 | 0.00 | 76 | 1027.4 |
| 20260510142135 | 16 | 258 | 3.2 | 3.2 | 0.00 | 0.00 | 0.00 | 74 | 1027.6 |
| 20260510141631 | 16 | 230 | 3.2 | 6.4 | 0.00 | 0.00 | 0.00 | 74 | 1027.5 |
| 20260510141130 | 16 | 287 | 3.2 | 4.8 | 0.00 | 0.00 | 0.00 | 75 | 1027.5 |
| 20260510140626 | 16 | 217 | 1.6 | 3.2 | 0.00 | 0.00 | 0.00 | 76 | 1027.4 |
| 20260510140125 | 16 | 131 | 1.6 | 3.2 | 0.00 | 0.00 | 0.00 | 76 | 1027.2 |
| 20260510135621 | 15 | 248 | 1.6 | 3.2 | 0.00 | 0.00 | 0.00 | 77 | 1027.4 |
| 20260510135117 | 15 | 290 | 3.2 | 4.8 | 0.00 | 0.00 | 0.00 | 77 | 1027.4 |
| 20260510134614 | 15 | 276 | 1.6 | 1.6 | 0.00 | 0.00 | 0.00 | 79 | 1027.5 |
| 20260510134111 | 14 | 266 | 1.6 | 1.6 | 0.00 | 0.00 | 0.00 | 79 | 1027.6 |
| 20260510133607 | 14 | 215 | 0.0 | 1.6 | 0.00 | 0.00 | 0.00 | 81 | 1027.6 |
| 20260510133103 | 13 | 285 | 0.0 | 4.8 | 0.00 | 0.00 | 0.00 | 81 | 1027.6 |
| 20260510132600 | 13 | 303 | 3.2 | 3.2 | 0.00 | 0.00 | 0.00 | 83 | 1027.8 |
| 20260510132057 | 13 | 302 | 1.6 | 4.8 | 0.00 | 0.00 | 0.00 | 83 | 1027.7 |
| 20260510131555 | 13 | 281 | 1.6 | 1.6 | 0.00 | 0.00 | 0.00 | 82 | 1027.6 |
| 20260510131052 | 13 | 195 | 1.6 | 3.2 | 0.00 | 0.00 | 0.00 | 84 | 1027.7 |
| 20260510130548 | 13 | 191 | 1.6 | 1.6 | 0.00 | 0.00 | 0.00 | 87 | 1027.5 |
| 20260510130046 | 12 | 203 | 1.6 | 1.6 | 0.00 | 0.00 | 0.00 | 88 | 1027.5 |
| 20260510125542 | 12 | 210 | 0.0 | 3.2 | 0.00 | 0.00 | 0.00 | 90 | 1027.5 |
| 20260510125038 | 12 | 276 | 1.6 | 3.2 | 0.00 | 0.00 | 0.00 | 92 | 1027.5 |
| 20260510124535 | 11 | 235 | 0.0 | 1.6 | 0.00 | 0.00 | 0.00 | 92 | 1027.6 |
| 20260510124032 | 11 | 235 | 1.6 | 1.6 | 0.00 | 0.00 | 0.00 | 93 | 1027.5 |
| 20260510123533 | 11 | 235 | 0.0 | 1.6 | 0.00 | 0.00 | 0.00 | 93 | 1027.6 |
| 20260510123029 | 11 | 234 | 0.0 | 0.0 | 0.00 | 0.00 | 0.00 | 93 | 1027.4 |
| 20260510122525 | 11 | 234 | 0.0 | 1.6 | 0.00 | 0.00 | 0.00 | 93 | 1027.4 |
| 20260510122021 | 11 | 234 | 0.0 | 0.0 | 0.00 | 0.00 | 0.00 | 93 | 1027.3 |
| 20260510121518 | 11 | 234 | 0.0 | 0.0 | 0.00 | 0.00 | 0.00 | 93 | 1027.1 |
| 20260510121016 | 10 | 234 | 0.0 | 0.0 | 0.00 | 0.00 | 0.00 | 94 | 1027.1 |
| 20260510120513 | 10 | 234 | 0.0 | 0.0 | 0.00 | 0.00 | 0.00 | 93 | 1026.8 |
| 20260510120009 | 10 | 234 | 0.0 | 0.0 | 0.00 | 0.00 | 0.00 | 94 | 1027.0 |
| 20260510115506 | 10 | 234 | 0.0 | 0.0 | 0.00 | 0.00 | 0.00 | 93 | 1027.0 |
| 20260510115002 | 10 | 234 | 0.0 | 0.0 | 0.00 | 0.00 | 0.00 | 94 | 1026.9 |
| 20260510114458 | 10 | 234 | 0.0 | 0.0 | 0.00 | 0.00 | 0.00 | 94 | 1027.2 |
| 20260510113954 | 10 | 234 | 0.0 | 0.0 | 0.00 | 0.00 | 0.00 | 94 | 1027.0 |
| 20260510113449 | 10 | 234 | 0.0 | 0.0 | 0.00 | 0.00 | 0.00 | 94 | 1026.9 |
| 20260510112948 | 10 | 234 | 1.6 | 1.6 | 0.00 | 0.00 | 0.00 | 93 | 1026.9 |
| 20260510112444 | 10 | 199 | 0.0 | 1.6 | 0.00 | 0.00 | 0.00 | 94 | 1026.8 |
| 20260510111941 | 10 | 198 | 0.0 | 1.6 | 0.00 | 0.00 | 0.00 | 94 | 1026.7 |
| 20260510111437 | 10 | 198 | 0.0 | 0.0 | 0.00 | 0.00 | 0.00 | 94 | 1026.3 |
| 20260510110933 | 10 | 198 | 0.0 | 0.0 | 0.00 | 0.00 | 0.00 | 94 | 1026.5 |
| 20260510110429 | 10 | 198 | 0.0 | 0.0 | 0.00 | 0.00 | 0.00 | 94 | 1026.5 |
| 20260510105925 | 10 | 198 | 0.0 | 0.0 | 0.00 | 0.00 | 0.00 | 94 | 1026.5 |
| 20260510105420 | 10 | 198 | 0.0 | 0.0 | 0.00 | 0.00 | 0.00 | 94 | 1026.6 |
| 20260510104916 | 10 | 198 | 0.0 | 0.0 | 0.00 | 0.00 | 0.00 | 94 | 1026.5 |
| 20260510104413 | 10 | 198 | 0.0 | 0.0 | 0.00 | 0.00 | 0.00 | 94 | 1026.2 |
| 20260510103909 | 10 | 198 | 0.0 | 0.0 | 0.00 | 0.00 | 0.00 | 94 | 1026.2 |
| 20260510103402 | 10 | 198 | 0.0 | 0.0 | 0.00 | 0.00 | 0.00 | 94 | 1026.0 |
| 20260510102857 | 10 | 198 | 0.0 | 0.0 | 0.00 | 0.00 | 0.00 | 94 | 1026.2 |
| 20260510102353 | 10 | 198 | 0.0 | 0.0 | 0.00 | 0.00 | 0.00 | 94 | 1026.1 |
| 20260510101850 | 10 | 199 | 0.0 | 0.0 | 0.00 | 0.00 | 0.00 | 94 | 1026.1 |
| 20260510101348 | 10 | 198 | 1.6 | 1.6 | 0.00 | 0.00 | 0.00 | 94 | 1026.3 |
| 20260510100845 | 9 | 176 | 0.0 | 1.6 | 0.00 | 0.00 | 0.00 | 94 | 1026.1 |
| 20260510100342 | 9 | 173 | 0.0 | 0.0 | 0.00 | 0.00 | 0.00 | 93 | 1026.0 |
| 20260510095838 | 10 | 177 | 0.0 | 0.0 | 0.00 | 0.00 | 0.00 | 93 | 1025.9 |
| 20260510095332 | 10 | 181 | 0.0 | 1.6 | 0.00 | 0.00 | 0.00 | 93 | 1025.9 |
| 20260510094826 | 10 | 176 | 0.0 | 0.0 | 0.00 | 0.00 | 0.00 | 93 | 1025.7 |
| 20260510094321 | 10 | 178 | 0.0 | 0.0 | 0.00 | 0.00 | 0.00 | 93 | 1025.7 |
| 20260510093818 | 10 | 181 | 0.0 | 1.6 | 0.00 | 0.00 | 0.00 | 93 | 1025.8 |
| 20260510093314 | 10 | 176 | 0.0 | 0.0 | 0.00 | 0.00 | 0.00 | 93 | 1025.6 |
| 20260510092811 | 10 | 177 | 0.0 | 0.0 | 0.00 | 0.00 | 0.00 | 93 | 1025.5 |
| 20260510092307 | 10 | 177 | 0.0 | 0.0 | 0.00 | 0.00 | 0.00 | 93 | 1025.5 |
| 20260510091802 | 10 | 173 | 0.0 | 0.0 | 0.00 | 0.00 | 0.00 | 93 | 1025.5 |
| 20260510091300 | 10 | 176 | 0.0 | 1.6 | 0.00 | 0.00 | 0.00 | 94 | 1025.7 |
| 20260510090756 | 10 | 177 | 0.0 | 1.6 | 0.00 | 0.00 | 0.00 | 94 | 1025.4 |
| 20260510090253 | 9 | 176 | 0.0 | 1.6 | 0.00 | 0.00 | 0.00 | 94 | 1025.7 |
| 20260510085749 | 9 | 174 | 0.0 | 1.6 | 0.00 | 0.00 | 0.00 | 94 | 1025.8 |
| 20260510085243 | 9 | 173 | 0.0 | 1.6 | 0.00 | 0.00 | 0.00 | 94 | 1025.6 |
| 20260510084739 | 9 | 174 | 1.6 | 1.6 | 0.00 | 0.00 | 0.00 | 93 | 1025.9 |
| 20260510084237 | 9 | 173 | 0.0 | 0.0 | 0.00 | 0.00 | 0.00 | 94 | 1026.0 |
| 20260510083733 | 10 | 173 | 0.0 | 0.0 | 0.00 | 0.00 | 0.00 | 94 | 1025.7 |
| 20260510083230 | 10 | 186 | 1.6 | 1.6 | 0.00 | 0.00 | 0.00 | 94 | 1025.9 |
| 20260510082725 | 9 | 180 | 1.6 | 1.6 | 0.00 | 0.00 | 0.00 | 94 | 1026.1 |
| 20260510082222 | 9 | 200 | 0.0 | 1.6 | 0.00 | 0.00 | 0.00 | 94 | 1026.1 |
| 20260510081721 | 9 | 200 | 0.0 | 0.0 | 0.00 | 0.00 | 0.00 | 94 | 1026.3 |
| 20260510081218 | 9 | 200 | 0.0 | 0.0 | 0.00 | 0.00 | 0.00 | 94 | 1026.1 |
| 20260510080713 | 9 | 200 | 0.0 | 0.0 | 0.00 | 0.00 | 0.00 | 94 | 1026.1 |
| 20260510080209 | 9 | 200 | 0.0 | 0.0 | 0.00 | 0.00 | 0.00 | 94 | 1026.4 |
| 20260510075706 | 9 | 200 | 0.0 | 1.6 | 0.00 | 0.00 | 0.00 | 94 | 1026.3 |
| 20260510075204 | 9 | 209 | 0.0 | 1.6 | 0.00 | 0.00 | 0.00 | 93 | 1026.4 |
| 20260510074700 | 9 | 221 | 0.0 | 0.0 | 0.00 | 0.00 | 0.00 | 94 | 1026.5 |
| 20260510074156 | 9 | 227 | 0.0 | 0.0 | 0.00 | 0.00 | 0.00 | 94 | 1026.5 |
| 20260510073653 | 9 | 227 | 0.0 | 0.0 | 0.00 | 0.00 | 0.00 | 94 | 1026.6 |
| 20260510073149 | 9 | 227 | 0.0 | 0.0 | 0.00 | 0.00 | 0.00 | 94 | 1026.6 |
| 20260510072645 | 9 | 227 | 0.0 | 0.0 | 0.00 | 0.00 | 0.00 | 94 | 1026.6 |
| 20260510072142 | 9 | 209 | 0.0 | 0.0 | 0.00 | 0.00 | 0.00 | 94 | 1026.6 |
| 20260510071638 | 9 | 209 | 1.6 | 1.6 | 0.00 | 0.00 | 0.00 | 94 | 1026.5 |
| 20260510071135 | 8 | 46 | 0.0 | 0.0 | 0.00 | 0.00 | 0.00 | 94 | 1026.6 |
| 20260510070633 | 8 | 46 | 0.0 | 0.0 | 0.00 | 0.00 | 0.00 | 94 | 1026.8 |
| 20260510070131 | 8 | 46 | 0.0 | 1.6 | 0.00 | 0.00 | 0.00 | 93 | 1026.7 |
| 20260510065626 | 8 | 51 | 1.6 | 3.2 | 0.00 | 0.00 | 0.00 | 93 | 1026.6 |
| 20260510065123 | 8 | 128 | 1.6 | 1.6 | 0.00 | 0.00 | 0.00 | 93 | 1026.1 |
| 20260510064619 | 7 | 128 | 0.0 | 1.6 | 0.00 | 0.00 | 0.00 | 93 | 1026.2 |
| 20260510064116 | 8 | 129 | 1.6 | 1.6 | 0.00 | 0.00 | 0.00 | 93 | 1026.0 |
| 20260510063613 | 8 | 130 | 0.0 | 0.0 | 0.00 | 0.00 | 0.00 | 93 | 1026.0 |
| 20260510063110 | 8 | 201 | 0.0 | 1.6 | 0.00 | 0.00 | 0.00 | 93 | 1026.0 |
| 20260510062605 | 8 | 201 | 0.0 | 0.0 | 0.00 | 0.00 | 0.00 | 93 | 1026.1 |
| 20260510062101 | 8 | 200 | 0.0 | 0.0 | 0.00 | 0.00 | 0.00 | 93 | 1026.1 |
| 20260510061557 | 7 | 200 | 0.0 | 0.0 | 0.00 | 0.00 | 0.00 | 93 | 1026.1 |
| 20260510061055 | 7 | 200 | 0.0 | 0.0 | 0.00 | 0.00 | 0.00 | 93 | 1026.3 |
| 20260510060550 | 7 | 201 | 0.0 | 0.0 | 0.00 | 0.00 | 0.00 | 93 | 1026.5 |
| 20260510060047 | 7 | 201 | 0.0 | 0.0 | 0.00 | 0.00 | 0.00 | 93 | 1026.5 |
| 20260510055543 | 7 | 201 | 0.0 | 0.0 | 0.00 | 0.00 | 0.00 | 93 | 1026.4 |
| 20260510055041 | 7 | 201 | 0.0 | 1.6 | 0.00 | 0.00 | 0.00 | 93 | 1026.4 |
| 20260510054537 | 7 | 201 | 0.0 | 1.6 | 0.00 | 0.00 | 0.00 | 93 | 1026.2 |
| 20260510054032 | 7 | 201 | 1.6 | 1.6 | 0.00 | 0.00 | 0.00 | 93 | 1026.3 |
| 20260510053527 | 7 | 201 | 1.6 | 1.6 | 0.00 | 0.00 | 0.00 | 93 | 1026.1 |
| 20260510053024 | 7 | 199 | 0.0 | 1.6 | 0.00 | 0.00 | 0.00 | 93 | 1025.8 |
| 20260510052520 | 7 | 199 | 0.0 | 0.0 | 0.00 | 0.00 | 0.00 | 93 | 1025.6 |
| 20260510052016 | 7 | 199 | 0.0 | 0.0 | 0.00 | 0.00 | 0.00 | 93 | 1025.6 |
| 20260510051512 | 7 | 199 | 0.0 | 0.0 | 0.00 | 0.00 | 0.00 | 93 | 1025.8 |
| 20260510051009 | 8 | 198 | 0.0 | 0.0 | 0.00 | 0.00 | 0.00 | 93 | 1025.8 |
| 20260510050506 | 8 | 198 | 0.0 | 0.0 | 0.00 | 0.00 | 0.00 | 92 | 1025.6 |
| 20260510050003 | 9 | 198 | 0.0 | 0.0 | 0.00 | 0.00 | 0.00 | 93 | 1025.7 |
| 20260510045500 | 10 | 198 | 0.0 | 1.6 | 0.00 | 0.00 | 0.00 | 93 | 1025.7 |
| 20260510044956 | 10 | 199 | 1.6 | 3.2 | 0.00 | 0.00 | 0.00 | 93 | 1026.0 |
| 20260510044453 | 10 | 198 | 3.2 | 4.8 | 0.00 | 0.00 | 0.00 | 93 | 1025.9 |
| 20260510043950 | 10 | 197 | 1.6 | 4.8 | 0.00 | 0.00 | 0.00 | 93 | 1025.8 |
| 20260510043445 | 10 | 197 | 3.2 | 4.8 | 0.00 | 0.00 | 0.00 | 93 | 1025.9 |
| 20260510042944 | 8 | 194 | 0.0 | 1.6 | 0.00 | 0.00 | 0.00 | 93 | 1025.8 |
| 20260510042440 | 8 | 194 | 0.0 | 0.0 | 0.00 | 0.00 | 0.00 | 93 | 1025.8 |
| 20260510041935 | 7 | 194 | 0.0 | 0.0 | 0.00 | 0.00 | 0.00 | 92 | 1025.7 |
| 20260510041433 | 7 | 194 | 0.0 | 0.0 | 0.00 | 0.00 | 0.00 | 92 | 1025.8 |
| 20260510040931 | 7 | 194 | 0.0 | 0.0 | 0.00 | 0.00 | 0.00 | 92 | 1025.7 |
| 20260510040427 | 7 | 194 | 0.0 | 0.0 | 0.00 | 0.00 | 0.00 | 92 | 1025.8 |
| 20260510035923 | 7 | 194 | 0.0 | 0.0 | 0.00 | 0.89 | 0.89 | 92 | 1025.7 |
| 20260510035420 | 7 | 194 | 0.0 | 0.0 | 0.00 | 0.89 | 0.89 | 92 | 1025.6 |
| 20260510034919 | 7 | 194 | 0.0 | 1.6 | 0.00 | 0.89 | 0.89 | 92 | 1025.7 |
| 20260510034418 | 7 | 194 | 0.0 | 1.6 | 0.00 | 0.89 | 0.89 | 92 | 1025.7 |
| 20260510033914 | 8 | 194 | 0.0 | 0.0 | 0.00 | 0.89 | 0.89 | 92 | 1025.5 |
| 20260510033410 | 8 | 193 | 0.0 | 0.0 | 0.00 | 0.89 | 0.89 | 92 | 1025.5 |
| 20260510032907 | 8 | 193 | 0.0 | 0.0 | 0.00 | 0.89 | 0.89 | 92 | 1025.5 |
| 20260510032404 | 8 | 193 | 0.0 | 0.0 | 0.00 | 0.89 | 0.89 | 92 | 1025.4 |
| 20260510031859 | 8 | 193 | 0.0 | 0.0 | 0.00 | 0.89 | 0.89 | 92 | 1025.5 |
| 20260510031355 | 8 | 193 | 0.0 | 0.0 | 0.00 | 0.89 | 0.89 | 91 | 1025.6 |
| 20260510030854 | 8 | 193 | 0.0 | 0.0 | 0.00 | 0.89 | 0.89 | 91 | 1025.7 |
| 20260510030351 | 8 | 193 | 0.0 | 0.0 | 0.00 | 0.89 | 0.89 | 91 | 1025.7 |
| 20260510025849 | 8 | 193 | 0.0 | 0.0 | 0.00 | 0.89 | 0.89 | 91 | 1025.8 |
| 20260510025346 | 8 | 193 | 0.0 | 0.0 | 0.00 | 0.89 | 0.89 | 91 | 1025.7 |
| 20260510024843 | 8 | 193 | 0.0 | 0.0 | 0.00 | 0.89 | 0.89 | 91 | 1025.7 |
| 20260510024339 | 8 | 193 | 0.0 | 0.0 | 0.00 | 0.89 | 0.89 | 90 | 1025.8 |
| 20260510023836 | 9 | 193 | 0.0 | 0.0 | 0.00 | 0.89 | 0.89 | 90 | 1025.8 |
| 20260510023332 | 9 | 193 | 0.0 | 0.0 | 0.00 | 0.89 | 0.89 | 90 | 1025.9 |
| 20260510022830 | 10 | 193 | 0.0 | 0.0 | 0.00 | 0.89 | 0.89 | 90 | 1025.6 |
| 20260510022328 | 10 | 193 | 0.0 | 0.0 | 0.00 | 0.89 | 0.89 | 90 | 1025.7 |
| 20260510021828 | 10 | 193 | 0.0 | 1.6 | 0.00 | 0.89 | 0.89 | 90 | 1025.5 |
| 20260510021326 | 10 | 193 | 0.0 | 1.6 | 0.00 | 0.89 | 0.89 | 90 | 1025.5 |
| 20260510020822 | 10 | 193 | 0.0 | 1.6 | 0.00 | 0.89 | 0.89 | 90 | 1025.4 |
| 20260510020317 | 10 | 193 | 1.6 | 1.6 | 0.00 | 0.89 | 0.89 | 90 | 1025.7 |
| 20260510015813 | 10 | 193 | 0.0 | 1.6 | 0.00 | 0.89 | 0.89 | 90 | 1025.7 |
| 20260510015309 | 10 | 193 | 0.0 | 0.0 | 0.00 | 0.89 | 0.89 | 89 | 1025.5 |
| 20260510014805 | 10 | 193 | 0.0 | 0.0 | 0.00 | 0.89 | 0.89 | 89 | 1025.4 |
| 20260510014302 | 10 | 193 | 0.0 | 0.0 | 0.00 | 0.89 | 0.89 | 89 | 1025.5 |
| 20260510013758 | 10 | 193 | 0.0 | 1.6 | 0.00 | 0.89 | 0.89 | 89 | 1025.6 |
| 20260510013254 | 11 | 193 | 0.0 | 1.6 | 0.00 | 0.89 | 0.89 | 89 | 1025.6 |
| 20260510012749 | 11 | 194 | 1.6 | 3.2 | 0.00 | 0.89 | 0.89 | 89 | 1025.3 |
| 20260510012244 | 11 | 193 | 0.0 | 1.6 | 0.00 | 0.89 | 0.89 | 89 | 1025.2 |
| 20260510011743 | 11 | 189 | 1.6 | 1.6 | 0.00 | 0.89 | 0.89 | 89 | 1025.3 |
| 20260510011239 | 11 | 185 | 0.0 | 1.6 | 0.00 | 0.89 | 0.89 | 89 | 1025.2 |
| 20260510010736 | 11 | 183 | 0.0 | 1.6 | 0.00 | 0.89 | 0.89 | 89 | 1025.3 |
| 20260510010232 | 11 | 187 | 0.0 | 1.6 | 0.00 | 0.89 | 0.89 | 89 | 1025.1 |
| 20260510005730 | 11 | 187 | 1.6 | 3.2 | 0.00 | 0.89 | 0.89 | 89 | 1025.1 |
| 20260510005226 | 11 | 194 | 3.2 | 4.8 | 0.00 | 0.89 | 0.89 | 90 | 1024.9 |
| 20260510004719 | 11 | 195 | 3.2 | 4.8 | 0.00 | 0.89 | 0.89 | 90 | 1024.9 |
| 20260510004216 | 11 | 189 | 0.0 | 1.6 | 0.00 | 0.89 | 0.89 | 90 | 1025.1 |
| 20260510003714 | 11 | 195 | 0.0 | 0.0 | 0.00 | 0.89 | 0.89 | 90 | 1024.8 |
| 20260510003209 | 11 | 196 | 0.0 | 1.6 | 0.00 | 0.89 | 0.89 | 90 | 1025.0 |
| 20260510002708 | 11 | 176 | 1.6 | 1.6 | 0.00 | 0.89 | 0.89 | 90 | 1024.8 |
| 20260510002206 | 11 | 183 | 0.0 | 1.6 | 0.00 | 0.89 | 0.89 | 89 | 1024.6 |
| 20260510001703 | 11 | 189 | 0.0 | 1.6 | 0.00 | 0.89 | 0.89 | 89 | 1024.7 |
| 20260510001202 | 11 | 177 | 1.6 | 3.2 | 0.00 | 0.89 | 0.89 | 89 | 1024.5 |
| 20260510000701 | 11 | 176 | 3.2 | 4.8 | 0.00 | 0.89 | 0.89 | 89 | 1024.5 |
| 20260510000159 | 11 | 188 | 1.6 | 1.6 | 0.00 | 0.89 | 0.89 | 89 | 1024.6 |
| 20260509235656 | 11 | 180 | 0.0 | 1.6 | 0.00 | 0.89 | 0.89 | 89 | 1024.5 |
| 20260509235152 | 11 | 169 | 1.6 | 4.8 | 0.00 | 0.89 | 0.89 | 89 | 1024.5 |
| 20260509234648 | 11 | 176 | 1.6 | 3.2 | 0.00 | 0.89 | 0.89 | 88 | 1024.6 |
| 20260509234146 | 11 | 191 | 3.2 | 3.2 | 0.00 | 0.89 | 0.89 | 88 | 1024.5 |
| 20260509233644 | 12 | 184 | 1.6 | 3.2 | 0.00 | 0.89 | 0.89 | 88 | 1024.4 |
| 20260509233141 | 12 | 197 | 3.2 | 3.2 | 0.00 | 0.89 | 0.89 | 87 | 1024.5 |
| 20260509232637 | 12 | 181 | 3.2 | 3.2 | 0.00 | 0.89 | 0.89 | 87 | 1024.3 |
| 20260509232134 | 12 | 187 | 3.2 | 3.2 | 0.00 | 0.89 | 0.89 | 87 | 1024.4 |
| 20260509231630 | 12 | 186 | 3.2 | 3.2 | 0.00 | 0.89 | 0.89 | 87 | 1024.3 |
| 20260509231128 | 12 | 178 | 1.6 | 1.6 | 0.00 | 0.89 | 0.89 | 88 | 1024.4 |
| 20260509230625 | 12 | 188 | 3.2 | 3.2 | 0.00 | 0.89 | 0.89 | 88 | 1024.5 |
| 20260509230122 | 12 | 185 | 1.6 | 1.6 | 0.00 | 0.89 | 0.89 | 88 | 1024.5 |
| 20260509225618 | 12 | 190 | 1.6 | 3.2 | 0.00 | 0.89 | 0.89 | 88 | 1024.5 |
| 20260509225113 | 12 | 183 | 1.6 | 3.2 | 0.00 | 0.89 | 0.89 | 89 | 1024.6 |
| 20260509224608 | 11 | 199 | 3.2 | 3.2 | 0.00 | 0.89 | 0.89 | 89 | 1024.5 |
| 20260509224106 | 11 | 182 | 0.0 | 1.6 | 0.00 | 0.89 | 0.89 | 89 | 1024.5 |
| 20260509223603 | 11 | 169 | 1.6 | 3.2 | 0.00 | 0.89 | 0.89 | 89 | 1024.6 |
| 20260509223100 | 11 | 187 | 1.6 | 1.6 | 0.00 | 0.89 | 0.89 | 89 | 1024.6 |
| 20260509222556 | 11 | 194 | 6.4 | 6.4 | 0.00 | 0.89 | 0.89 | 89 | 1024.5 |
| 20260509222052 | 11 | 172 | 1.6 | 3.2 | 0.00 | 0.89 | 0.89 | 89 | 1024.5 |
| 20260509221548 | 11 | 181 | 1.6 | 3.2 | 0.00 | 0.89 | 0.89 | 90 | 1024.4 |
| 20260509221044 | 11 | 186 | 1.6 | 1.6 | 0.00 | 0.89 | 0.89 | 90 | 1024.5 |
| 20260509220540 | 11 | 172 | 3.2 | 3.2 | 0.00 | 0.89 | 0.89 | 90 | 1024.5 |
| 20260509220037 | 12 | 180 | 1.6 | 3.2 | 0.00 | 0.89 | 0.89 | 90 | 1024.6 |
| 20260509215532 | 12 | 174 | 0.0 | 1.6 | 0.00 | 0.89 | 0.89 | 91 | 1024.8 |
| 20260509215030 | 12 | 183 | 1.6 | 3.2 | 0.18 | 0.89 | 0.89 | 90 | 1024.8 |
| 20260509214526 | 12 | 187 | 0.0 | 1.6 | 0.18 | 0.89 | 0.89 | 91 | 1024.7 |
| 20260509214023 | 12 | 191 | 0.0 | 1.6 | 0.00 | 0.86 | 0.86 | 91 | 1024.7 |
| 20260509213519 | 12 | 183 | 1.6 | 1.6 | 0.00 | 0.86 | 0.86 | 90 | 1024.9 |
| 20260509213017 | 12 | 199 | 1.6 | 1.6 | 0.00 | 0.86 | 0.86 | 91 | 1024.9 |
| 20260509212514 | 12 | 202 | 0.0 | 0.0 | 0.13 | 0.86 | 0.86 | 91 | 1025.0 |
| 20260509212011 | 11 | 202 | 0.0 | 1.6 | 0.13 | 0.86 | 0.86 | 90 | 1025.0 |
| 20260509211506 | 12 | 252 | 0.0 | 0.0 | 0.00 | 0.84 | 0.84 | 90 | 1025.0 |
| 20260509211003 | 11 | 252 | 0.0 | 0.0 | 0.00 | 0.84 | 0.84 | 90 | 1025.1 |
| 20260509210500 | 12 | 252 | 0.0 | 0.0 | 0.00 | 0.84 | 0.84 | 90 | 1025.1 |
| 20260509205955 | 12 | 252 | 0.0 | 0.0 | 0.18 | 0.84 | 0.84 | 90 | 1025.0 |
| 20260509205450 | 11 | 253 | 0.0 | 0.0 | 0.18 | 0.84 | 0.84 | 90 | 1025.0 |
| 20260509204946 | 11 | 253 | 0.0 | 0.0 | 0.13 | 0.81 | 0.81 | 90 | 1025.1 |
| 20260509204443 | 11 | 253 | 0.0 | 0.0 | 0.30 | 0.81 | 0.81 | 90 | 1025.4 |
| 20260509203939 | 11 | 253 | 0.0 | 0.0 | 0.30 | 0.79 | 0.79 | 90 | 1025.0 |
| 20260509203435 | 12 | 254 | 0.0 | 0.0 | 0.30 | 0.76 | 0.76 | 90 | 1025.3 |
| 20260509202933 | 12 | 254 | 0.0 | 0.0 | 0.18 | 0.74 | 0.74 | 89 | 1025.4 |
| 20260509202429 | 12 | 254 | 0.0 | 0.0 | 0.00 | 0.71 | 0.71 | 89 | 1025.5 |
| 20260509201924 | 11 | 254 | 0.0 | 0.0 | 0.13 | 0.71 | 0.71 | 89 | 1025.5 |
| 20260509201419 | 11 | 255 | 0.0 | 1.6 | 0.13 | 0.71 | 0.71 | 89 | 1025.5 |
| 20260509200917 | 12 | 226 | 0.0 | 0.0 | 0.00 | 0.69 | 0.69 | 89 | 1025.4 |
| 20260509200416 | 12 | 226 | 0.0 | 0.0 | 0.00 | 0.69 | 0.69 | 89 | 1025.7 |
| 20260509195914 | 11 | 226 | 0.0 | 0.0 | 0.18 | 0.69 | 0.69 | 89 | 1025.7 |
| 20260509195409 | 11 | 226 | 0.0 | 0.0 | 0.18 | 0.69 | 0.69 | 89 | 1025.8 |
| 20260509194908 | 11 | 226 | 0.0 | 1.6 | 0.13 | 0.66 | 0.66 | 89 | 1025.8 |
| 20260509194405 | 11 | 285 | 1.6 | 3.2 | 0.13 | 0.66 | 0.66 | 89 | 1025.8 |
| 20260509193901 | 11 | 283 | 0.0 | 3.2 | 0.18 | 0.64 | 0.64 | 89 | 1025.8 |
| 20260509193356 | 12 | 222 | 1.6 | 1.6 | 0.18 | 0.64 | 0.64 | 89 | 1026.0 |
| 20260509192852 | 12 | 275 | 1.6 | 1.6 | 0.00 | 0.61 | 0.61 | 89 | 1026.0 |
| 20260509192348 | 12 | 204 | 1.6 | 3.2 | 0.00 | 0.61 | 0.61 | 89 | 1026.1 |
| 20260509191844 | 12 | 234 | 0.0 | 1.6 | 0.18 | 0.61 | 0.61 | 90 | 1025.9 |
| 20260509191339 | 12 | 290 | 0.0 | 4.8 | 0.18 | 0.61 | 0.61 | 90 | 1026.1 |
| 20260509190836 | 12 | 213 | 0.0 | 1.6 | 0.13 | 0.58 | 0.58 | 90 | 1026.2 |
| 20260509190333 | 12 | 208 | 1.6 | 1.6 | 0.18 | 0.56 | 0.56 | 90 | 1026.2 |
| 20260509185830 | 12 | 306 | 0.0 | 1.6 | 0.48 | 0.56 | 0.56 | 90 | 1026.4 |
| 20260509185326 | 12 | 235 | 0.0 | 0.0 | 0.30 | 0.53 | 0.53 | 90 | 1026.5 |
| 20260509184824 | 12 | 234 | 0.0 | 0.0 | 0.13 | 0.48 | 0.48 | 90 | 1026.7 |
| 20260509184320 | 12 | 256 | 0.0 | 3.2 | 0.30 | 0.48 | 0.48 | 90 | 1026.7 |
| 20260509183817 | 12 | 270 | 0.0 | 1.6 | 0.18 | 0.46 | 0.46 | 89 | 1026.5 |
| 20260509183307 | 12 | 244 | 0.0 | 1.6 | 0.13 | 0.43 | 0.43 | 89 | 1026.5 |
| 20260509182803 | 12 | 313 | 0.0 | 0.0 | 0.13 | 0.43 | 0.43 | 90 | 1026.5 |
| 20260509182300 | 12 | 304 | 1.6 | 3.2 | 0.00 | 0.41 | 0.41 | 89 | 1026.4 |
| 20260509181757 | 12 | 240 | 1.6 | 1.6 | 0.18 | 0.41 | 0.41 | 89 | 1026.3 |
| 20260509181255 | 12 | 257 | 1.6 | 4.8 | 0.18 | 0.41 | 0.41 | 89 | 1026.3 |
| 20260509180752 | 12 | 271 | 1.6 | 3.2 | 0.13 | 0.38 | 0.38 | 89 | 1026.4 |
| 20260509180248 | 12 | 245 | 0.0 | 1.6 | 0.48 | 0.38 | 0.38 | 88 | 1026.1 |
| 20260509175745 | 12 | 292 | 0.0 | 3.2 | 0.48 | 0.36 | 0.36 | 88 | 1026.2 |
| 20260509175241 | 12 | 292 | 3.2 | 3.2 | 0.13 | 0.30 | 0.30 | 87 | 1026.1 |
| 20260509174737 | 13 | 90 | 0.0 | 1.6 | 0.18 | 0.28 | 0.28 | 86 | 1026.0 |
| 20260509174233 | 13 | 90 | 0.0 | 0.0 | 0.18 | 0.28 | 0.28 | 85 | 1026.0 |
| 20260509173729 | 13 | 90 | 0.0 | 0.0 | 0.00 | 0.25 | 0.25 | 85 | 1025.8 |
| 20260509173225 | 12 | 90 | 0.0 | 0.0 | 0.00 | 0.25 | 0.25 | 85 | 1025.9 |
| 20260509172721 | 13 | 90 | 0.0 | 1.6 | 0.00 | 0.25 | 0.25 | 85 | 1025.9 |
| 20260509172218 | 13 | 103 | 0.0 | 1.6 | 0.00 | 0.25 | 0.25 | 85 | 1025.9 |
| 20260509171713 | 13 | 105 | 0.0 | 3.2 | 0.00 | 0.25 | 0.25 | 84 | 1025.8 |
| 20260509171210 | 13 | 72 | 0.0 | 1.6 | 0.00 | 0.25 | 0.25 | 85 | 1025.7 |
| 20260509170707 | 13 | 68 | 0.0 | 0.0 | 0.00 | 0.25 | 0.25 | 85 | 1025.8 |
| 20260509170202 | 13 | 68 | 0.0 | 0.0 | 0.00 | 0.25 | 0.25 | 85 | 1026.0 |
| 20260509165701 | 13 | 82 | 0.0 | 0.0 | 0.00 | 0.25 | 0.25 | 85 | 1025.9 |
| 20260509165156 | 13 | 83 | 0.0 | 0.0 | 0.00 | 0.25 | 0.25 | 85 | 1026.1 |